Showing default

OOV-CUBE, 60240

Orbit data source: Space-Track

OOV-CUBE, 60240 is a payload satellite owned by TUB (DE) in LEO that was launched on Tue, 09 Jul 2024 UTC via an ARIANE 62 launch vehicle from the French Guiana (FRGUI). Payload-class satellites include a variety of spacecraft equipped with specific instruments for various scientific and technological missions. These include communications satellites like Starlink; space stations such as the ISS; scientific satellites like the Hubble; Earth observation satellites from companies like Planet Labs, Umbra, and HawkEye 360; GPS; miniature CubeSats for education and research; and military/defense satellites.

Loading next visibility...
Identifier
60240, 2024-128F
Orbit
LEO
Country
Flag of DEDE / GER
Related business
Manufacturer
TUB
Mission
Operational Amateur Technology
Bus & Motor
TUBSAT, Unknown motor
Mass
17 kg wet, 17 kg dry
Launch date (UTC)
2024-07-09 (2 years ago)
Launch vehicle
ARIANE 62
Launch site
French Guiana (FRGUI)
Object type
Payload
Rocket body
Debris
Shape & HBR
Box, 0.2 m
Radar Cross Section
0.094 m², Medium (>0.1 m² and < 1m²)

Expand to show TLE details & history
Last TLE update: 15 hours ago

TLE from 15 hours ago
0 OOV-CUBE
1 60240U 24128F   26264.65881064  .00001104  00000-0  96241-4 0  9999
2 60240  61.9929 249.0891 0030937 156.2773 203.9753 15.03113351120618
Epoch: 2026-09-21T15:48Z
TLE epoch observation values (Epoch: 2026-09-21T15:48:41.239Z)
Latitude
0.00002°
Longitude
11.38181°
Altitude
578.692 km
Speed
7.561 km/s
True Right ascension
16h 36m 21s
True Declination
0° 00' 00"
Sunlit
Object was in daylight at epoch
Visualization orbit readout
Latitude
Unknown
Longitude
Unknown
Altitude
Unknown
Speed
Unknown
Apparent Right ascension
Unknown
Apparent Declination
Unknown
Sunlit
N/A
Visualization observer readout
Local Sidereal Time
00:05:12
Azimuth
Unknown
Elevation
Unknown
Doppler factor
Unknown
Orbital elements
Apogee altitude
577.686 km
Perigee altitude
534.78 km
Semi-major axis
6,934.37 km
Eccentricity
0.00309
Inclination
61.9929°
RAAN
249.0891°
Arg. of periapsis
156.2773°
True anomaly
203.83175°
Mean anomaly
203.9753°
Eccentric anomaly
203.90348°
Mean motion
3.75866 °/min
Orbital period
95.78 mins
BSTAR
0.000096241
Loading maneuver chart data...
Computing Atmospheric mass density...
Loading historical data...
Loading historical data...
Loading historical data...
Loading historical data...
Loading historical data...
Loading historical data...
Loading historical data...

Documentation

Showing up to 5 results
|